CZ-6A DEB, 54344

Orbit data source: Space-Track

CZ-6A DEB, 54344 is space debris in SSO originally from a launch on Fri, 11 Nov 2022 UTC launched from the Taiyaun Space Center, China (TSC). Debris objects in space refer to the collection of defunct objects orbiting the Earth. Examples of debris include non-operational satellites, rocket bodies, and fragments generated from explosions, collisions, or faulty payload assembly.

Loading next visibility...
Identifier
54344, 2022-151CP
Orbit
SSO
Country
Flag of CNCN / PRC
Related business
Manufacturer
SAST
Mission
Spacecraft
Bus & Motor
Unknown
Mass
Unknown
Launch date (UTC)
2022-11-11 (3 years ago)
Launch vehicle
Unknown
Launch site
Taiyaun Space Center, China (TSC)
Object type
Payload
Rocket body
Debris
Shape & HBR
Unknown shape, 0.2 m
Radar Cross Section
Small (<0.1 m²)

Expand to show TLE details & history
Last TLE update: 10 hours ago

TLE from 10 hours ago
0 CZ-6A DEB
1 54344U 22151CP  26130.21868367  .00000124  00000-0  97714-4 0  9993
2 54344  98.8614 127.3951 0057427 105.7173 255.0340 14.07282763178763
Epoch: 2026-05-10T05:14Z
TLE epoch observation values (Epoch: 2026-05-10T05:14:54.269Z)
Latitude
-0.00005°
Longitude
-179.35593°
Altitude
882.549 km
Speed
7.405 km/s
True Right ascension
08h 29m 34s
True Declination
0° 00' 00"
Sunlit
Object was in daylight at epoch
Visualization orbit readout
Latitude
Unknown
Longitude
Unknown
Altitude
Unknown
Speed
Unknown
Apparent Right ascension
Unknown
Apparent Declination
Unknown
Sunlit
N/A
Visualization observer readout
Local Sidereal Time
22:58:10
Azimuth
Unknown
Elevation
Unknown
Doppler factor
Unknown
Orbital elements
Apogee altitude
907.468 km
Perigee altitude
824.268 km
Semi-major axis
7,244.005 km
Eccentricity
0.00574
Inclination
98.8614°
RAAN
127.3951°
Arg. of periapsis
105.7173°
True anomaly
254.39945°
Mean anomaly
255.034°
Eccentric anomaly
254.7166°
Mean motion
3.52026 °/min
Orbital period
102.27 mins
BSTAR
0.000097714
Loading maneuver chart data...
Computing Atmospheric mass density...

Documentation

Showing up to 5 results
|